Regional Weather Roundup
Issued by NWS

Home | Current Version | Previous Version | Graphics & Text | Print | Product List | Glossary On
Versions: 1 2 3 4 5 6 7 8 9 10 11 12 13 14 15 16 17 18 19 20 21 22 23 24 25 26 27 28 29 30 31 32 33 34 35 36 37 38 39 40 41 42 43 44 45 46 47 48 49 50
906
ASUS43 KLMK 251002
RWRKY
KENTUCKY REGIONAL WEATHER ROUNDUP
NATIONAL WEATHER SERVICE LOUISVILLE KY
500 AM EST SAT FEB 25 2017

NOTE "FAIR" INDICATES FEW OR NO CLOUDS BELOW 12,000 FEET
WITH NO SIGNIFICANT WEATHER AND/OR OBSTRUCTIONS TO VISIBILITY.

KYZ001>023-026-027-061>063-070>075-251100-
WESTERN AND SOUTH CENTRAL KENTUCKY

CITY           SKY/WX    TMP DP  RH WIND       PRES   REMARKS
PADUCAH        PTCLDY    36  21  54 NW13      29.90R WCI  27
HENDERSON      CLOUDY    36  21  55 W18G29    29.86R WCI  25
OWENSBORO      CLOUDY    38  28  67 NW20      29.84R WCI  28
HOPKINSVILLE   CLEAR     42  27  55 W10       29.84R
BOWLING GREEN  CLOUDY    46  32  58 NW7       29.81R
GLASGOW        NOT AVBL
$$

KYZ024-025-028>034-038-045-046-053-251100-
NORTH CENTRAL KENTUCKY

CITY           SKY/WX    TMP DP  RH WIND       PRES   REMARKS
LOUISVILLE/SDF MOCLDY    45  29  53 W17       29.75R
LOUISVILLE/LOU MOCLDY    45  29  53 W15       29.75R
FORT KNOX      MOCLDY    41  31  66 W9        29.75R
$$

KYZ035>037-039>044-047>052-055>060-089>105-251100-
NORTHEAST KENTUCKY

CITY           SKY/WX    TMP DP  RH WIND       PRES   REMARKS
LEXINGTON      CLOUDY    46  34  62 W8        29.71R
COVINGTON      PTCLDY    42  32  67 W8        29.67R
FRANKFORT      MOCLDY    45  31  58 W7        29.71R
$$

KYZ054-064>069-076>088-106>120-251100-
SOUTHEAST KENTUCKY

CITY           SKY/WX    TMP DP  RH WIND       PRES   REMARKS
JACKSON        CLOUDY    45  42  89 W3        29.68S
LONDON         LGT RAIN  47  46  97 W6        29.72R
SOMERSET       CLOUDY    46  41  81 W8        29.75R
MIDDLESBORO    RAIN      52  47  83 W14G26    29.73R
MONTICELLO     CLOUDY    49  43  80 W7        29.77R
$$





USA.gov is the U.S. government's official web portal to all federal, state and local government web resources and services.